sat.trackr.live / text

‹ back to catalog

STARLINK-37110

NORAD 68222 · 2026-053R

PAYLOAD ACTIVE UNKNOWN

§ Identity

Operator
Country
US
Launch date
2026-03-17
Launch site
AFWTR
Launch vehicle
Mass (kg)
RCS (m²)

Purposes: comms

External: N2YO · Heavens-Above · Gunter

§ Orbital elements

Epoch: 2026-05-25T04:29:15.864288Z

Period
93.91 min
Inclination
97.2863°
Eccentricity
0.0001621
Mean motion
15.33455686 rev/d
Perigee alt
464.4 km
Apogee alt
466.6 km
Semi-major
6,843.6 km
B*
3.6310e-4
RAAN
20.6691°
Arg perigee
88.8028°
Mean anomaly
271.3401°
Rev number
1,194

§ Raw data

STARLINK-371101 68222U 26053R   26145.18698917  .00011669  00000+0  36310-3 0  99912 68222  97.2863  20.6691 0001621  88.8028 271.3401 15.33455686 11944

JSON: /api/v1/satellites/68222 · /tle

For live sub-satellite position, see the globe view (requires WebGL).

§ Visibility from observer

Set your observer location to see the next 7 days of passes ≥ 10°. The values pass through the URL so the page stays shareable.

No JS? Fill the form by hand. The geolocation button needs JavaScript.